| time (UTC) | temp F | wind direction | speed MPH | gust MPH | rain 1hr in | rain 24hr in | rain mn in | humidity % | barometer mb |
| 20260508094017 | 50 | 293 | 2.0 | 4.0 | 0.00 | 0.00 | 0.00 | 72 | 1012.2 |
| 20260508093516 | 50 | 338 | 3.0 | 6.0 | 0.00 | 0.00 | 0.00 | 72 | 1012.1 |
| 20260508093016 | 50 | 315 | 3.0 | 7.0 | 0.00 | 0.00 | 0.00 | 72 | 1012.1 |
| 20260508092515 | 50 | 315 | 3.0 | 5.0 | 0.00 | 0.00 | 0.00 | 72 | 1012.0 |
| 20260508092037 | 50 | 315 | 1.0 | 4.0 | 0.00 | 0.00 | 0.00 | 72 | 1011.9 |
| 20260508091515 | 50 | 45 | 1.0 | 4.0 | 0.00 | 0.00 | 0.00 | 72 | 1011.5 |
| 20260508091015 | 50 | 315 | 2.0 | 4.0 | 0.00 | 0.00 | 0.00 | 72 | 1011.7 |
| 20260508090515 | 50 | 338 | 3.0 | 10.0 | 0.00 | 0.00 | 0.00 | 71 | 1011.7 |
| 20260508090015 | 50 | 315 | 4.0 | 10.0 | 0.00 | 0.01 | 0.00 | 72 | 1011.7 |
| 20260508085515 | 50 | 338 | 3.0 | 10.0 | 0.00 | 0.01 | 0.00 | 72 | 1011.8 |
| 20260508085016 | 50 | 338 | 3.0 | 8.0 | 0.00 | 0.01 | 0.00 | 71 | 1011.7 |
| 20260508084516 | 50 | 338 | 3.0 | 8.0 | 0.00 | 0.01 | 0.00 | 71 | 1011.7 |
| 20260508084017 | 50 | 0 | 3.0 | 10.0 | 0.00 | 0.01 | 0.00 | 71 | 1011.6 |
| 20260508083515 | 50 | 315 | 2.0 | 8.0 | 0.00 | 0.01 | 0.00 | 70 | 1011.7 |
| 20260508083015 | 50 | 293 | 3.0 | 8.0 | 0.00 | 0.01 | 0.00 | 70 | 1011.8 |
| 20260508082517 | 50 | 315 | 5.0 | 10.0 | 0.00 | 0.01 | 0.00 | 70 | 1011.8 |
| 20260508082015 | 50 | 315 | 4.0 | 9.0 | 0.00 | 0.01 | 0.00 | 69 | 1011.7 |
| 20260508081515 | 51 | 315 | 4.0 | 11.0 | 0.00 | 0.01 | 0.00 | 69 | 1011.6 |
| 20260508081015 | 51 | 338 | 5.0 | 12.0 | 0.00 | 0.01 | 0.00 | 68 | 1011.5 |
| 20260508080517 | 51 | 338 | 5.0 | 15.0 | 0.00 | 0.01 | 0.00 | 66 | 1011.2 |
| 20260508080016 | 51 | 338 | 4.0 | 10.0 | 0.00 | 0.01 | 0.00 | 64 | 1011.1 |
| 20260508075515 | 51 | 338 | 4.0 | 12.0 | 0.00 | 0.01 | 0.00 | 62 | 1010.9 |
| 20260508075036 | 52 | 0 | 4.0 | 12.0 | 0.00 | 0.01 | 0.00 | 61 | 1010.8 |
| 20260508074515 | 52 | 0 | 4.0 | 12.0 | 0.00 | 0.01 | 0.00 | 61 | 1010.7 |
| 20260508074015 | 52 | 45 | 4.0 | 10.0 | 0.00 | 0.01 | 0.00 | 59 | 1010.7 |
| 20260508073516 | 52 | 0 | 2.0 | 6.0 | 0.00 | 0.01 | 0.00 | 59 | 1010.7 |
| 20260508073015 | 52 | 0 | 4.0 | 12.0 | 0.00 | 0.02 | 0.00 | 59 | 1010.7 |
| 20260508072515 | 52 | 23 | 3.0 | 10.0 | 0.00 | 0.02 | 0.00 | 59 | 1010.7 |
| 20260508072017 | 53 | 338 | 3.0 | 10.0 | 0.00 | 0.02 | 0.00 | 60 | 1010.7 |
| 20260508071517 | 53 | 0 | 3.0 | 10.0 | 0.00 | 0.02 | 0.00 | 60 | 1010.7 |
| 20260508071016 | 53 | 338 | 4.0 | 11.0 | 0.00 | 0.02 | 0.00 | 60 | 1010.6 |
| 20260508070517 | 53 | 45 | 3.0 | 9.0 | 0.00 | 0.02 | 0.00 | 60 | 1010.6 |
| 20260508070017 | 53 | 0 | 4.0 | 11.0 | 0.00 | 0.02 | 0.00 | 60 | 1010.7 |
| 20260508065515 | 53 | 45 | 4.0 | 13.0 | 0.00 | 0.02 | 0.00 | 62 | 1010.9 |
| 20260508065017 | 53 | 338 | 4.0 | 13.0 | 0.00 | 0.03 | 0.00 | 62 | 1010.9 |
| 20260508064517 | 54 | 338 | 5.0 | 15.0 | 0.00 | 0.03 | 0.00 | 62 | 1011.0 |
| 20260508064018 | 54 | 338 | 4.0 | 12.0 | 0.00 | 0.03 | 0.00 | 62 | 1011.0 |
| 20260508063517 | 54 | 338 | 5.0 | 12.0 | 0.00 | 0.04 | 0.00 | 62 | 1011.0 |
| 20260508063017 | 54 | 0 | 6.0 | 14.0 | 0.00 | 0.05 | 0.00 | 62 | 1010.9 |
| 20260508062517 | 54 | 315 | 9.0 | 17.0 | 0.00 | 0.06 | 0.00 | 62 | 1010.8 |
| 20260508062037 | 54 | 315 | 7.0 | 14.0 | 0.00 | 0.08 | 0.00 | 67 | 1010.9 |
| 20260508061517 | 55 | 315 | 5.0 | 9.0 | 0.00 | 0.09 | 0.00 | 75 | 1010.7 |
| 20260508061017 | 55 | 293 | 3.0 | 8.0 | 0.00 | 0.10 | 0.00 | 77 | 1010.6 |
| 20260508060518 | 55 | 270 | 5.0 | 11.0 | 0.00 | 0.11 | 0.00 | 77 | 1010.5 |
| 20260508060019 | 55 | 270 | 4.0 | 11.0 | 0.00 | 0.12 | 0.00 | 77 | 1010.5 |
| 20260508055517 | 54 | 293 | 3.0 | 6.0 | 0.00 | 0.14 | 0.00 | 77 | 1010.0 |
| 20260508055019 | 54 | 293 | 1.0 | 3.0 | 0.00 | 0.16 | 0.00 | 76 | 1009.6 |
| 20260508054518 | 54 | 0.0 | 1.0 | 0.00 | 0.16 | 0.00 | 76 | 1009.4 | |
| 20260508054017 | 54 | 0.0 | 1.0 | 0.00 | 0.16 | 0.00 | 76 | 1009.3 | |
| 20260508053517 | 54 | 270 | 2.0 | 5.0 | 0.00 | 0.16 | 0.00 | 76 | 1009.4 |
| 20260508053037 | 54 | 270 | 2.0 | 4.0 | 0.00 | 0.16 | 0.00 | 77 | 1009.5 |
| 20260508052558 | 54 | 248 | 2.0 | 5.0 | 0.00 | 0.16 | 0.00 | 77 | 1009.5 |
| 20260508052017 | 54 | 248 | 3.0 | 8.0 | 0.00 | 0.16 | 0.00 | 77 | 1009.7 |
| 20260508051517 | 54 | 225 | 3.0 | 6.0 | 0.00 | 0.16 | 0.00 | 77 | 1009.6 |
| 20260508051018 | 54 | 248 | 2.0 | 4.0 | 0.00 | 0.16 | 0.00 | 77 | 1009.5 |
| 20260508050518 | 54 | 225 | 1.0 | 3.0 | 0.00 | 0.16 | 0.00 | 77 | 1009.6 |
| 20260508050017 | 54 | 225 | 1.0 | 4.0 | 0.00 | 0.16 | 0.00 | 76 | 1009.5 |
| 20260508045558 | 54 | 225 | 2.0 | 5.0 | 0.00 | 0.16 | 0.00 | 76 | 1009.4 |
| 20260508045018 | 54 | 225 | 2.0 | 4.0 | 0.00 | 0.16 | 0.00 | 75 | 1009.3 |
| 20260508044617 | 54 | 225 | 2.0 | 5.0 | 0.00 | 0.16 | 0.00 | 75 | 1009.2 |
| 20260508044017 | 54 | 0.0 | 3.0 | 0.00 | 0.16 | 0.00 | 74 | 1009.1 | |
| 20260508043517 | 54 | 225 | 1.0 | 4.0 | 0.00 | 0.16 | 0.00 | 74 | 1009.1 |
| 20260508043017 | 54 | 225 | 1.0 | 4.0 | 0.00 | 0.16 | 0.00 | 74 | 1009.2 |
| 20260508042517 | 54 | 225 | 1.0 | 3.0 | 0.00 | 0.16 | 0.00 | 73 | 1009.3 |
| 20260508042017 | 54 | 0.0 | 3.0 | 0.00 | 0.16 | 0.00 | 73 | 1009.2 | |
| 20260508041517 | 54 | 0.0 | 3.0 | 0.00 | 0.16 | 0.00 | 73 | 1009.1 | |
| 20260508041017 | 54 | 0.0 | 3.0 | 0.00 | 0.16 | 0.00 | 73 | 1009.2 | |
| 20260508040518 | 54 | 0.0 | 0.0 | 0.00 | 0.16 | 0.00 | 73 | 1009.3 | |
| 20260508040019 | 55 | 203 | 1.0 | 3.0 | 0.00 | 0.16 | 0.16 | 73 | 1009.2 |
| 20260508035515 | 55 | 225 | 1.0 | 4.0 | 0.00 | 0.16 | 0.16 | 73 | 1009.4 |
| 20260508035015 | 55 | 203 | 1.0 | 4.0 | 0.00 | 0.16 | 0.16 | 72 | 1009.4 |
| 20260508034515 | 55 | 248 | 2.0 | 4.0 | 0.00 | 0.16 | 0.16 | 72 | 1009.4 |
| 20260508034015 | 55 | 203 | 1.0 | 3.0 | 0.00 | 0.16 | 0.16 | 72 | 1009.4 |
| 20260508033515 | 55 | 225 | 1.0 | 5.0 | 0.00 | 0.16 | 0.16 | 72 | 1009.4 |
| 20260508033016 | 55 | 225 | 3.0 | 5.0 | 0.00 | 0.16 | 0.16 | 72 | 1009.4 |
| 20260508032515 | 55 | 225 | 2.0 | 5.0 | 0.00 | 0.16 | 0.16 | 71 | 1009.5 |
| 20260508032017 | 55 | 0.0 | 3.0 | 0.00 | 0.16 | 0.16 | 71 | 1009.6 | |
| 20260508031517 | 56 | 0.0 | 3.0 | 0.00 | 0.16 | 0.16 | 71 | 1009.5 | |
| 20260508031036 | 56 | 0.0 | 2.0 | 0.00 | 0.16 | 0.16 | 70 | 1009.5 | |
| 20260508030516 | 56 | 225 | 1.0 | 5.0 | 0.00 | 0.16 | 0.16 | 70 | 1009.5 |
| 20260508030015 | 56 | 225 | 2.0 | 6.0 | 0.00 | 0.16 | 0.16 | 70 | 1009.4 |
| 20260508025515 | 56 | 225 | 2.0 | 5.0 | 0.00 | 0.16 | 0.16 | 69 | 1009.4 |
| 20260508025016 | 56 | 225 | 2.0 | 6.0 | 0.00 | 0.16 | 0.16 | 69 | 1009.5 |
| 20260508024515 | 56 | 225 | 4.0 | 10.0 | 0.00 | 0.16 | 0.16 | 68 | 1009.5 |
| 20260508024016 | 57 | 225 | 4.0 | 9.0 | 0.00 | 0.16 | 0.16 | 68 | 1009.5 |
| 20260508023516 | 57 | 203 | 2.0 | 6.0 | 0.00 | 0.16 | 0.16 | 67 | 1009.4 |
| 20260508023015 | 57 | 225 | 1.0 | 4.0 | 0.00 | 0.16 | 0.16 | 67 | 1009.4 |
| 20260508022515 | 58 | 225 | 2.0 | 8.0 | 0.00 | 0.16 | 0.16 | 66 | 1009.4 |
| 20260508022016 | 58 | 0.0 | 3.0 | 0.00 | 0.16 | 0.16 | 65 | 1009.4 | |
| 20260508021515 | 58 | 248 | 1.0 | 4.0 | 0.00 | 0.16 | 0.16 | 63 | 1009.3 |
| 20260508021015 | 59 | 0.0 | 0.0 | 0.00 | 0.16 | 0.16 | 62 | 1009.3 | |
| 20260508020555 | 59 | 0.0 | 1.0 | 0.00 | 0.16 | 0.16 | 60 | 1009.2 | |
| 20260508020136 | 59 | 225 | 1.0 | 6.0 | 0.00 | 0.16 | 0.16 | 59 | 1009.2 |
| 20260508015515 | 60 | 225 | 1.0 | 3.0 | 0.00 | 0.16 | 0.16 | 57 | 1009.2 |
| 20260508015015 | 60 | 225 | 1.0 | 4.0 | 0.00 | 0.16 | 0.16 | 55 | 1009.1 |
| 20260508014516 | 61 | 0.0 | 1.0 | 0.00 | 0.16 | 0.16 | 52 | 1009.0 | |
| 20260508014017 | 61 | 0.0 | 3.0 | 0.00 | 0.16 | 0.16 | 50 | 1009.0 | |
| 20260508013515 | 61 | 113 | 1.0 | 3.0 | 0.00 | 0.16 | 0.16 | 47 | 1009.0 |
| 20260508013017 | 62 | 68 | 1.0 | 5.0 | 0.00 | 0.16 | 0.16 | 42 | 1009.1 |
| 20260508012517 | 62 | 45 | 2.0 | 5.0 | 0.00 | 0.16 | 0.16 | 36 | 1009.1 |
| 20260508012018 | 62 | 338 | 2.0 | 5.0 | 0.00 | 0.16 | 0.16 | 36 | 1009.0 |
| 20260508011518 | 62 | 0 | 1.0 | 5.0 | 0.00 | 0.16 | 0.16 | 37 | 1009.0 |
| 20260508011037 | 62 | 23 | 1.0 | 6.0 | 0.00 | 0.16 | 0.16 | 37 | 1008.9 |
| 20260508010538 | 62 | 338 | 1.0 | 8.0 | 0.00 | 0.16 | 0.16 | 37 | 1008.8 |
| 20260508010037 | 62 | 0 | 1.0 | 4.0 | 0.00 | 0.16 | 0.16 | 37 | 1008.8 |
| 20260508005517 | 62 | 0 | 1.0 | 5.0 | 0.00 | 0.16 | 0.16 | 37 | 1008.6 |
| 20260508005037 | 62 | 45 | 1.0 | 3.0 | 0.00 | 0.16 | 0.16 | 36 | 1008.7 |
| 20260508004517 | 62 | 0.0 | 3.0 | 0.00 | 0.16 | 0.16 | 36 | 1008.6 | |
| 20260508004017 | 62 | 0.0 | 2.0 | 0.00 | 0.16 | 0.16 | 36 | 1008.6 | |
| 20260508003517 | 62 | 338 | 1.0 | 4.0 | 0.00 | 0.16 | 0.16 | 35 | 1008.6 |
| 20260508003037 | 62 | 0 | 2.0 | 5.0 | 0.00 | 0.16 | 0.16 | 34 | 1008.4 |
| 20260508002518 | 62 | 0 | 2.0 | 7.0 | 0.00 | 0.16 | 0.16 | 34 | 1008.4 |
| 20260508002017 | 62 | 45 | 1.0 | 4.0 | 0.00 | 0.16 | 0.16 | 34 | 1008.3 |
| 20260508001538 | 62 | 23 | 2.0 | 5.0 | 0.00 | 0.16 | 0.16 | 34 | 1008.2 |
| 20260508001017 | 63 | 0 | 2.0 | 9.0 | 0.00 | 0.16 | 0.16 | 34 | 1008.2 |
| 20260508000518 | 63 | 45 | 1.0 | 6.0 | 0.00 | 0.16 | 0.16 | 34 | 1008.2 |
| 20260508000018 | 63 | 45 | 1.0 | 4.0 | 0.00 | 0.16 | 0.16 | 33 | 1008.1 |
| 20260507235517 | 63 | 23 | 1.0 | 6.0 | 0.00 | 0.16 | 0.16 | 33 | 1008.1 |
| 20260507235018 | 63 | 45 | 1.0 | 6.0 | 0.00 | 0.16 | 0.16 | 33 | 1008.1 |
| 20260507234518 | 64 | 338 | 2.0 | 7.0 | 0.00 | 0.16 | 0.16 | 33 | 1008.1 |
| 20260507234017 | 64 | 45 | 2.0 | 6.0 | 0.00 | 0.16 | 0.16 | 33 | 1008.0 |
| 20260507233519 | 64 | 338 | 3.0 | 8.0 | 0.00 | 0.16 | 0.16 | 33 | 1007.9 |
| 20260507233037 | 64 | 0 | 2.0 | 7.0 | 0.00 | 0.16 | 0.16 | 32 | 1007.7 |
| 20260507232517 | 65 | 338 | 2.0 | 8.0 | 0.00 | 0.16 | 0.16 | 33 | 1007.7 |
| 20260507232017 | 65 | 338 | 2.0 | 6.0 | 0.00 | 0.16 | 0.16 | 33 | 1007.8 |
| 20260507231517 | 65 | 338 | 2.0 | 7.0 | 0.00 | 0.16 | 0.16 | 33 | 1007.8 |
| 20260507231017 | 65 | 45 | 2.0 | 9.0 | 0.00 | 0.16 | 0.16 | 32 | 1007.8 |
| 20260507230517 | 65 | 23 | 2.0 | 5.0 | 0.00 | 0.16 | 0.16 | 32 | 1007.8 |
| 20260507230017 | 65 | 0 | 2.0 | 8.0 | 0.00 | 0.16 | 0.16 | 32 | 1007.8 |
| 20260507225518 | 65 | 338 | 3.0 | 9.0 | 0.00 | 0.16 | 0.16 | 32 | 1007.7 |
| 20260507225017 | 65 | 338 | 3.0 | 6.0 | 0.00 | 0.16 | 0.16 | 31 | 1007.7 |
| 20260507224517 | 65 | 315 | 2.0 | 6.0 | 0.00 | 0.16 | 0.16 | 32 | 1007.7 |
| 20260507224017 | 65 | 338 | 2.0 | 6.0 | 0.00 | 0.16 | 0.16 | 31 | 1007.7 |
| 20260507223518 | 66 | 315 | 3.0 | 9.0 | 0.00 | 0.16 | 0.16 | 30 | 1007.7 |
| 20260507223017 | 66 | 315 | 3.0 | 9.0 | 0.00 | 0.16 | 0.16 | 30 | 1007.7 |
| 20260507222517 | 66 | 338 | 4.0 | 8.0 | 0.00 | 0.16 | 0.16 | 30 | 1007.7 |
| 20260507222018 | 66 | 315 | 4.0 | 10.0 | 0.00 | 0.16 | 0.16 | 31 | 1007.6 |
| 20260507221517 | 67 | 315 | 4.0 | 12.0 | 0.00 | 0.16 | 0.16 | 31 | 1007.6 |
| 20260507221018 | 67 | 338 | 4.0 | 9.0 | 0.00 | 0.16 | 0.16 | 31 | 1007.8 |
| 20260507220517 | 67 | 338 | 3.0 | 10.0 | 0.00 | 0.16 | 0.16 | 30 | 1007.7 |
| 20260507220017 | 67 | 0 | 4.0 | 8.0 | 0.00 | 0.16 | 0.16 | 31 | 1007.7 |
| 20260507215518 | 67 | 0 | 2.0 | 8.0 | 0.00 | 0.16 | 0.16 | 30 | 1007.7 |
| 20260507215017 | 67 | 338 | 3.0 | 9.0 | 0.00 | 0.16 | 0.16 | 31 | 1007.6 |
| 20260507214517 | 67 | 0 | 4.0 | 10.0 | 0.00 | 0.16 | 0.16 | 30 | 1007.6 |
| 20260507214017 | 67 | 45 | 3.0 | 8.0 | 0.00 | 0.16 | 0.16 | 30 | 1007.7 |
| 20260507213517 | 67 | 0 | 3.0 | 7.0 | 0.00 | 0.16 | 0.16 | 31 | 1007.7 |
| 20260507213017 | 67 | 23 | 2.0 | 11.0 | 0.00 | 0.16 | 0.16 | 31 | 1007.6 |
| 20260507212538 | 67 | 0 | 4.0 | 9.0 | 0.00 | 0.16 | 0.16 | 31 | 1007.5 |
| 20260507212017 | 67 | 338 | 2.0 | 5.0 | 0.00 | 0.16 | 0.16 | 31 | 1007.5 |
| 20260507211517 | 67 | 0 | 5.0 | 10.0 | 0.00 | 0.16 | 0.16 | 30 | 1007.4 |
| 20260507211017 | 67 | 293 | 2.0 | 7.0 | 0.00 | 0.16 | 0.16 | 31 | 1007.4 |
| 20260507210517 | 67 | 338 | 1.0 | 4.0 | 0.00 | 0.16 | 0.16 | 31 | 1007.4 |
| 20260507210017 | 66 | 270 | 2.0 | 6.0 | 0.00 | 0.16 | 0.16 | 32 | 1007.3 |
| 20260507205517 | 66 | 0 | 2.0 | 8.0 | 0.00 | 0.16 | 0.16 | 31 | 1007.4 |
| 20260507205017 | 67 | 338 | 4.0 | 9.0 | 0.00 | 0.16 | 0.16 | 31 | 1007.5 |
| 20260507204517 | 67 | 45 | 2.0 | 5.0 | 0.00 | 0.16 | 0.16 | 30 | 1007.5 |
| 20260507204018 | 67 | 45 | 4.0 | 10.0 | 0.00 | 0.16 | 0.16 | 29 | 1007.5 |
| 20260507203517 | 68 | 315 | 4.0 | 9.0 | 0.00 | 0.16 | 0.16 | 31 | 1007.5 |
| 20260507203017 | 67 | 0 | 3.0 | 10.0 | 0.00 | 0.16 | 0.16 | 30 | 1007.5 |
| 20260507202517 | 67 | 0 | 2.0 | 8.0 | 0.00 | 0.16 | 0.16 | 31 | 1007.6 |
| 20260507202059 | 67 | 45 | 3.0 | 8.0 | 0.00 | 0.16 | 0.16 | 30 | 1007.5 |
| 20260507201518 | 67 | 23 | 3.0 | 9.0 | 0.00 | 0.16 | 0.16 | 31 | 1007.6 |
| 20260507201039 | 67 | 0 | 3.0 | 8.0 | 0.00 | 0.16 | 0.16 | 30 | 1007.7 |
| 20260507200517 | 67 | 338 | 3.0 | 10.0 | 0.00 | 0.16 | 0.16 | 30 | 1007.7 |
| 20260507200017 | 67 | 315 | 2.0 | 9.0 | 0.00 | 0.16 | 0.16 | 30 | 1007.6 |
| 20260507195517 | 67 | 338 | 4.0 | 10.0 | 0.00 | 0.16 | 0.16 | 29 | 1007.7 |
| 20260507195017 | 68 | 338 | 3.0 | 8.0 | 0.00 | 0.16 | 0.16 | 30 | 1007.7 |
| 20260507194518 | 67 | 338 | 3.0 | 7.0 | 0.00 | 0.16 | 0.16 | 31 | 1007.8 |
| 20260507194037 | 67 | 338 | 4.0 | 9.0 | 0.00 | 0.16 | 0.16 | 30 | 1007.9 |
| 20260507193537 | 67 | 0 | 3.0 | 10.0 | 0.00 | 0.16 | 0.16 | 31 | 1007.8 |
| 20260507193016 | 67 | 0 | 3.0 | 8.0 | 0.00 | 0.16 | 0.16 | 30 | 1007.9 |
| 20260507192517 | 67 | 45 | 3.0 | 10.0 | 0.00 | 0.16 | 0.16 | 31 | 1007.9 |
| 20260507192017 | 67 | 315 | 4.0 | 9.0 | 0.00 | 0.16 | 0.16 | 31 | 1008.0 |
| 20260507191517 | 67 | 248 | 5.0 | 13.0 | 0.00 | 0.16 | 0.16 | 31 | 1008.0 |
| 20260507191016 | 67 | 270 | 7.0 | 14.0 | 0.00 | 0.16 | 0.16 | 30 | 1008.1 |
| 20260507190517 | 67 | 0 | 5.0 | 13.0 | 0.00 | 0.16 | 0.16 | 31 | 1008.1 |
| 20260507190017 | 67 | 338 | 4.0 | 13.0 | 0.00 | 0.16 | 0.16 | 30 | 1008.3 |
| 20260507185517 | 67 | 0 | 3.0 | 9.0 | 0.00 | 0.16 | 0.16 | 32 | 1008.3 |
| 20260507185017 | 67 | 0 | 3.0 | 8.0 | 0.00 | 0.16 | 0.16 | 31 | 1008.4 |
| 20260507184517 | 66 | 315 | 3.0 | 7.0 | 0.00 | 0.16 | 0.16 | 31 | 1008.4 |
| 20260507184037 | 66 | 338 | 3.0 | 9.0 | 0.00 | 0.16 | 0.16 | 31 | 1008.4 |
| 20260507183517 | 66 | 315 | 4.0 | 11.0 | 0.00 | 0.16 | 0.16 | 31 | 1008.4 |
| 20260507183017 | 66 | 45 | 3.0 | 9.0 | 0.00 | 0.16 | 0.16 | 31 | 1008.5 |
| 20260507182517 | 66 | 315 | 3.0 | 8.0 | 0.00 | 0.16 | 0.16 | 32 | 1008.6 |
| 20260507182037 | 65 | 293 | 3.0 | 7.0 | 0.00 | 0.16 | 0.16 | 32 | 1008.6 |
| 20260507181517 | 65 | 0 | 5.0 | 10.0 | 0.00 | 0.16 | 0.16 | 31 | 1008.8 |
| 20260507181017 | 65 | 293 | 4.0 | 10.0 | 0.00 | 0.16 | 0.16 | 31 | 1008.8 |
| 20260507180517 | 65 | 315 | 5.0 | 11.0 | 0.00 | 0.16 | 0.16 | 31 | 1009.0 |
| 20260507180018 | 65 | 338 | 4.0 | 8.0 | 0.00 | 0.16 | 0.16 | 32 | 1009.0 |
| 20260507175538 | 65 | 338 | 5.0 | 11.0 | 0.00 | 0.16 | 0.16 | 31 | 1009.1 |
| 20260507175017 | 65 | 338 | 3.0 | 8.0 | 0.00 | 0.16 | 0.16 | 31 | 1009.2 |
| 20260507174517 | 65 | 0 | 4.0 | 10.0 | 0.00 | 0.16 | 0.16 | 32 | 1009.3 |
| 20260507174017 | 65 | 0 | 4.0 | 12.0 | 0.00 | 0.16 | 0.16 | 32 | 1009.2 |
| 20260507173538 | 65 | 0 | 5.0 | 12.0 | 0.00 | 0.16 | 0.16 | 32 | 1009.3 |
| 20260507173017 | 64 | 270 | 3.0 | 7.0 | 0.00 | 0.16 | 0.16 | 32 | 1009.2 |
| 20260507172516 | 64 | 0 | 5.0 | 10.0 | 0.00 | 0.16 | 0.16 | 31 | 1009.3 |
| 20260507172018 | 64 | 0 | 3.0 | 11.0 | 0.00 | 0.17 | 0.16 | 31 | 1009.4 |
| 20260507171516 | 64 | 315 | 4.0 | 8.0 | 0.00 | 0.17 | 0.16 | 32 | 1009.5 |
| 20260507171017 | 64 | 0 | 3.0 | 9.0 | 0.00 | 0.17 | 0.16 | 32 | 1009.8 |
| 20260507170516 | 64 | 315 | 6.0 | 12.0 | 0.00 | 0.17 | 0.16 | 31 | 1009.6 |
| 20260507170016 | 64 | 293 | 4.0 | 12.0 | 0.00 | 0.17 | 0.16 | 32 | 1009.7 |
| 20260507165517 | 63 | 315 | 4.0 | 9.0 | 0.00 | 0.17 | 0.16 | 32 | 1009.8 |
| 20260507165018 | 63 | 315 | 5.0 | 11.0 | 0.00 | 0.17 | 0.16 | 31 | 1009.9 |
| 20260507164536 | 63 | 338 | 4.0 | 11.0 | 0.00 | 0.17 | 0.16 | 32 | 1010.0 |
| 20260507164017 | 63 | 315 | 4.0 | 9.0 | 0.00 | 0.17 | 0.16 | 33 | 1010.0 |
| 20260507163517 | 63 | 315 | 5.0 | 11.0 | 0.00 | 0.17 | 0.16 | 33 | 1010.0 |
| 20260507163016 | 63 | 338 | 5.0 | 10.0 | 0.00 | 0.18 | 0.16 | 32 | 1010.0 |
| 20260507162558 | 63 | 293 | 5.0 | 11.0 | 0.00 | 0.18 | 0.16 | 33 | 1010.1 |
| 20260507162016 | 62 | 315 | 5.0 | 12.0 | 0.00 | 0.18 | 0.16 | 32 | 1010.2 |
| 20260507161516 | 62 | 315 | 5.0 | 12.0 | 0.00 | 0.18 | 0.16 | 34 | 1010.3 |
| 20260507161017 | 62 | 0 | 5.0 | 12.0 | 0.00 | 0.18 | 0.16 | 33 | 1010.4 |
| 20260507160536 | 62 | 315 | 5.0 | 12.0 | 0.00 | 0.18 | 0.16 | 34 | 1010.5 |
| 20260507160036 | 62 | 315 | 6.0 | 11.0 | 0.00 | 0.18 | 0.16 | 35 | 1010.6 |
| 20260507155516 | 62 | 315 | 4.0 | 11.0 | 0.00 | 0.18 | 0.16 | 37 | 1010.7 |
| 20260507155016 | 62 | 338 | 3.0 | 7.0 | 0.00 | 0.18 | 0.16 | 38 | 1010.7 |
| 20260507154516 | 61 | 338 | 4.0 | 10.0 | 0.00 | 0.18 | 0.16 | 37 | 1010.7 |
| 20260507154017 | 61 | 315 | 5.0 | 12.0 | 0.00 | 0.18 | 0.16 | 37 | 1010.8 |
| 20260507153517 | 61 | 315 | 5.0 | 10.0 | 0.00 | 0.18 | 0.16 | 37 | 1010.8 |
| 20260507153016 | 60 | 0 | 4.0 | 11.0 | 0.00 | 0.18 | 0.16 | 38 | 1010.9 |
| 20260507152517 | 60 | 315 | 5.0 | 13.0 | 0.00 | 0.18 | 0.16 | 39 | 1010.8 |
| 20260507152038 | 60 | 315 | 6.0 | 14.0 | 0.00 | 0.18 | 0.16 | 39 | 1011.0 |
| 20260507151516 | 60 | 315 | 6.0 | 14.0 | 0.00 | 0.18 | 0.16 | 37 | 1011.0 |
| 20260507151037 | 60 | 315 | 6.0 | 13.0 | 0.00 | 0.18 | 0.16 | 38 | 1011.0 |
| 20260507150516 | 60 | 293 | 4.0 | 11.0 | 0.00 | 0.18 | 0.16 | 39 | 1011.0 |
| 20260507150016 | 60 | 315 | 6.0 | 12.0 | 0.00 | 0.18 | 0.16 | 38 | 1011.0 |
| 20260507145516 | 60 | 315 | 5.0 | 10.0 | 0.00 | 0.18 | 0.16 | 39 | 1011.0 |
| 20260507145037 | 59 | 0 | 6.0 | 12.0 | 0.00 | 0.18 | 0.16 | 38 | 1011.1 |
| 20260507144516 | 59 | 338 | 6.0 | 14.0 | 0.00 | 0.18 | 0.16 | 40 | 1011.2 |
| 20260507144016 | 59 | 315 | 5.0 | 12.0 | 0.00 | 0.18 | 0.16 | 44 | 1011.2 |
| 20260507143516 | 59 | 0 | 5.0 | 13.0 | 0.00 | 0.18 | 0.16 | 48 | 1011.2 |
| 20260507143017 | 58 | 0 | 5.0 | 11.0 | 0.00 | 0.18 | 0.16 | 50 | 1011.3 |
| 20260507142538 | 58 | 315 | 6.0 | 12.0 | 0.00 | 0.18 | 0.16 | 53 | 1011.2 |
| 20260507142038 | 58 | 0 | 5.0 | 10.0 | 0.00 | 0.18 | 0.16 | 55 | 1011.2 |
| 20260507141516 | 58 | 0 | 4.0 | 9.0 | 0.00 | 0.18 | 0.16 | 60 | 1011.2 |
| 20260507141016 | 57 | 315 | 5.0 | 12.0 | 0.00 | 0.18 | 0.16 | 62 | 1011.2 |
| 20260507140516 | 57 | 315 | 6.0 | 11.0 | 0.00 | 0.18 | 0.16 | 63 | 1011.2 |
| 20260507140017 | 57 | 338 | 4.0 | 11.0 | 0.00 | 0.18 | 0.16 | 64 | 1011.2 |
| 20260507135516 | 56 | 315 | 2.0 | 7.0 | 0.00 | 0.18 | 0.16 | 67 | 1011.1 |
| 20260507135018 | 56 | 315 | 5.0 | 11.0 | 0.00 | 0.18 | 0.16 | 66 | 1011.2 |
| 20260507134516 | 56 | 315 | 4.0 | 9.0 | 0.00 | 0.18 | 0.16 | 68 | 1011.2 |
| 20260507134016 | 55 | 315 | 4.0 | 10.0 | 0.00 | 0.18 | 0.16 | 69 | 1011.2 |
| 20260507133516 | 55 | 338 | 4.0 | 10.0 | 0.00 | 0.18 | 0.16 | 71 | 1011.2 |
| 20260507133017 | 55 | 315 | 4.0 | 10.0 | 0.00 | 0.18 | 0.16 | 72 | 1011.2 |
| 20260507132516 | 55 | 338 | 4.0 | 11.0 | 0.00 | 0.18 | 0.16 | 73 | 1011.1 |
| 20260507132016 | 54 | 270 | 4.0 | 8.0 | 0.00 | 0.18 | 0.16 | 74 | 1011.1 |
| 20260507131517 | 54 | 293 | 4.0 | 8.0 | 0.00 | 0.18 | 0.16 | 74 | 1011.2 |
| 20260507131017 | 54 | 315 | 4.0 | 8.0 | 0.00 | 0.18 | 0.16 | 75 | 1011.3 |
| 20260507130516 | 54 | 315 | 4.0 | 10.0 | 0.00 | 0.18 | 0.16 | 75 | 1011.3 |
| 20260507130016 | 53 | 315 | 4.0 | 11.0 | 0.00 | 0.18 | 0.16 | 75 | 1011.4 |
| 20260507125516 | 53 | 315 | 5.0 | 11.0 | 0.00 | 0.18 | 0.16 | 75 | 1011.4 |
| 20260507125038 | 53 | 338 | 5.0 | 10.0 | 0.00 | 0.18 | 0.16 | 75 | 1011.3 |
| 20260507124516 | 53 | 338 | 5.0 | 13.0 | 0.00 | 0.18 | 0.16 | 76 | 1011.4 |
| 20260507124017 | 53 | 315 | 4.0 | 12.0 | 0.00 | 0.18 | 0.16 | 77 | 1011.2 |
| 20260507123516 | 53 | 315 | 4.0 | 8.0 | 0.00 | 0.18 | 0.16 | 78 | 1011.3 |
| 20260507123016 | 53 | 315 | 4.0 | 10.0 | 0.00 | 0.18 | 0.16 | 78 | 1011.4 |
| 20260507122516 | 52 | 315 | 3.0 | 8.0 | 0.00 | 0.18 | 0.16 | 78 | 1011.4 |
| 20260507122016 | 52 | 315 | 4.0 | 9.0 | 0.00 | 0.18 | 0.16 | 78 | 1011.5 |
| 20260507121517 | 52 | 315 | 3.0 | 8.0 | 0.00 | 0.18 | 0.16 | 79 | 1011.4 |
| 20260507121016 | 52 | 338 | 3.0 | 8.0 | 0.00 | 0.18 | 0.16 | 79 | 1011.4 |
| 20260507120516 | 52 | 338 | 3.0 | 9.0 | 0.00 | 0.18 | 0.16 | 79 | 1011.3 |
| 20260507120016 | 52 | 315 | 3.0 | 8.0 | 0.00 | 0.18 | 0.16 | 79 | 1011.3 |
| 20260507115516 | 52 | 315 | 3.0 | 10.0 | 0.00 | 0.18 | 0.16 | 79 | 1011.0 |
| 20260507115016 | 52 | 315 | 4.0 | 13.0 | 0.00 | 0.18 | 0.16 | 79 | 1011.0 |
| 20260507114516 | 52 | 315 | 4.0 | 10.0 | 0.00 | 0.18 | 0.16 | 80 | 1010.9 |
| 20260507114017 | 52 | 315 | 4.0 | 10.0 | 0.00 | 0.18 | 0.16 | 80 | 1011.0 |
| 20260507113516 | 52 | 315 | 3.0 | 6.0 | 0.00 | 0.18 | 0.16 | 81 | 1010.8 |
| 20260507113037 | 52 | 315 | 2.0 | 6.0 | 0.00 | 0.18 | 0.16 | 81 | 1010.9 |
| 20260507112516 | 52 | 315 | 3.0 | 10.0 | 0.00 | 0.18 | 0.16 | 81 | 1010.7 |
| 20260507112037 | 52 | 315 | 4.0 | 10.0 | 0.00 | 0.18 | 0.16 | 81 | 1010.6 |
| 20260507111516 | 52 | 315 | 5.0 | 12.0 | 0.00 | 0.18 | 0.16 | 81 | 1010.7 |
| 20260507111017 | 52 | 293 | 3.0 | 9.0 | 0.00 | 0.18 | 0.16 | 81 | 1010.6 |
| 20260507110516 | 52 | 315 | 4.0 | 10.0 | 0.00 | 0.18 | 0.16 | 82 | 1010.6 |
| 20260507110016 | 52 | 315 | 3.0 | 9.0 | 0.00 | 0.18 | 0.16 | 82 | 1010.5 |
| 20260507105517 | 52 | 315 | 4.0 | 10.0 | 0.00 | 0.18 | 0.16 | 82 | 1010.4 |
| 20260507105016 | 52 | 315 | 4.0 | 10.0 | 0.00 | 0.18 | 0.16 | 83 | 1010.4 |
| 20260507104536 | 52 | 338 | 2.0 | 7.0 | 0.00 | 0.18 | 0.16 | 84 | 1010.3 |
| 20260507104016 | 52 | 315 | 5.0 | 10.0 | 0.00 | 0.18 | 0.16 | 84 | 1010.3 |
| 20260507103517 | 52 | 315 | 3.0 | 11.0 | 0.00 | 0.18 | 0.16 | 84 | 1010.4 |
| 20260507103037 | 52 | 315 | 3.0 | 9.0 | 0.00 | 0.18 | 0.16 | 84 | 1010.2 |
| 20260507102516 | 52 | 315 | 3.0 | 9.0 | 0.00 | 0.18 | 0.16 | 85 | 1010.0 |
| 20260507102016 | 52 | 315 | 4.0 | 9.0 | 0.00 | 0.18 | 0.16 | 85 | 1010.2 |
| 20260507101516 | 52 | 315 | 3.0 | 8.0 | 0.00 | 0.18 | 0.16 | 85 | 1010.1 |
| 20260507101016 | 51 | 293 | 4.0 | 8.0 | 0.00 | 0.18 | 0.16 | 85 | 1010.0 |
| 20260507100516 | 51 | 315 | 3.0 | 9.0 | 0.00 | 0.18 | 0.16 | 86 | 1009.8 |
| 20260507100016 | 51 | 315 | 3.0 | 6.0 | 0.01 | 0.18 | 0.16 | 86 | 1009.8 |
| 20260507095537 | 51 | 315 | 3.0 | 9.0 | 0.01 | 0.18 | 0.16 | 86 | 1009.8 |
| 20260507095016 | 51 | 293 | 3.0 | 9.0 | 0.01 | 0.18 | 0.16 | 86 | 1009.9 |
| 20260507094516 | 51 | 315 | 4.0 | 9.0 | 0.01 | 0.18 | 0.16 | 87 | 1009.8 |